When you browse on this site, cookies collect data to enhance your experience and personalize the content and advertising you see.
Visit our Privacy Policy to learn more. By continuing to use the site, you agree to this use of cookies and data.
  • In Hungary
  • List of Countries
  • For 7 days
  • Water Temperature
  • Weather Map
  • News
  • Weather Widgets
  • user-avatar
    Login

    Hourly Weather Kucherovka

    Today, 24 October, Thursday

    Time Temperature Precipitation Wind Pressure Humidity
    00:00 +16°C° 0 mm 1 mps 764 mmHg 58%
    01:00 +15°C° 0 mm 1 mps 764 mmHg 60%
    02:00 +14°C° 0 mm 0 mps 764 mmHg 61%
    03:00 +13°C° 0 mm 0 mps 764 mmHg 63%
    04:00 +13°C° 0 mm 0 mps 764 mmHg 63%
    05:00 +13°C° 0 mm 0 mps 764 mmHg 64%
    06:00 +13°C° 0 mm 0 mps 764 mmHg 65%
    07:00 +14°C° 0 mm 0 mps 764 mmHg 62%
    08:00 +15°C° 0 mm 0 mps 764 mmHg 59%
    09:00 +16°C° 0 mm 0 mps 764 mmHg 55%
    10:00 +19°C° 0 mm 1 mps 764 mmHg 52%
    11:00 +20°C° 0 mm 1 mps 764 mmHg 48%
    12:00 +20°C° 0 mm 2 mps 764 mmHg 44%
    13:00 +21°C° 0 mm 2 mps 763 mmHg 43%
    14:00 +21°C° 0 mm 2 mps 763 mmHg 42%
    15:00 +23°C° 0 mm 2 mps 763 mmHg 41%
    16:00 +20°C° 0 mm 2 mps 763 mmHg 45%
    17:00 +20°C° 0 mm 1 mps 763 mmHg 48%
    18:00 +19°C° 0 mm 1 mps 763 mmHg 52%
    19:00 +18°C° 0 mm 1 mps 763 mmHg 54%
    20:00 +18°C° 0 mm 1 mps 763 mmHg 56%
    21:00 +16°C° 0 mm 1 mps 763 mmHg 58%
    22:00 +15°C° 0 mm 0 mps 763 mmHg 60%
    23:00 +14°C° 0 mm 0 mps 763 mmHg 61%

    Tomorrow, 25 October, Friday

    Time Temperature Precipitation Wind Pressure Humidity
    00:00 +14°C° 0 mm 0 mps 762 mmHg 62%
    01:00 +14°C° 0 mm 0 mps 762 mmHg 63%
    02:00 +13°C° 0 mm 0 mps 762 mmHg 64%
    03:00 +13°C° 0 mm 0 mps 762 mmHg 65%
    04:00 +13°C° 0 mm 0 mps 762 mmHg 66%
    05:00 +13°C° 0 mm 0 mps 762 mmHg 67%
    06:00 +12°C° 0 mm 0 mps 762 mmHg 67%
    07:00 +14°C° 0 mm 1 mps 762 mmHg 64%
    08:00 +15°C° 0 mm 1 mps 762 mmHg 61%
    09:00 +16°C° 0 mm 1 mps 763 mmHg 57%
    10:00 +19°C° 0 mm 1 mps 762 mmHg 53%
    11:00 +20°C° 0 mm 1 mps 762 mmHg 49%
    12:00 +21°C° 0 mm 1 mps 762 mmHg 44%
    13:00 +22°C° 0 mm 1 mps 762 mmHg 43%
    14:00 +22°C° 0 mm 1 mps 762 mmHg 42%
    15:00 +22°C° 0 mm 1 mps 762 mmHg 41%
    16:00 +21°C° 0 mm 1 mps 762 mmHg 44%
    17:00 +20°C° 0 mm 1 mps 762 mmHg 47%
    18:00 +19°C° 0 mm 1 mps 762 mmHg 51%
    19:00 +17°C° 0 mm 2 mps 762 mmHg 53%
    20:00 +16°C° 0 mm 2 mps 762 mmHg 55%
    21:00 +16°C° 0 mm 2 mps 762 mmHg 57%
    22:00 +15°C° 0 mm 2 mps 762 mmHg 59%
    23:00 +15°C° 0 mm 2 mps 762 mmHg 61%

    Day after tomorrow, 26 October, Saturday

    Time Temperature Precipitation Wind Pressure Humidity
    00:00 +14°C° 0 mm 2 mps 762 mmHg 64%
    01:00 +14°C° 0 mm 2 mps 762 mmHg 65%
    02:00 +13°C° 0 mm 2 mps 762 mmHg 67%
    03:00 +13°C° 0 mm 2 mps 762 mmHg 69%
    04:00 +12°C° 0 mm 2 mps 762 mmHg 70%
    05:00 +12°C° 0 mm 2 mps 763 mmHg 72%
    06:00 +12°C° 0 mm 2 mps 763 mmHg 73%
    07:00 +12°C° 0 mm 2 mps 763 mmHg 69%
    08:00 +13°C° 0 mm 2 mps 763 mmHg 65%
    09:00 +14°C° 0 mm 2 mps 763 mmHg 61%
    10:00 +15°C° 0 mm 2 mps 763 mmHg 56%
    11:00 +17°C° 0 mm 2 mps 763 mmHg 51%
    12:00 +19°C° 0 mm 2 mps 763 mmHg 47%
    13:00 +19°C° 0 mm 2 mps 763 mmHg 45%
    14:00 +20°C° 0 mm 2 mps 763 mmHg 44%
    15:00 +20°C° 0 mm 2 mps 763 mmHg 43%
    16:00 +20°C° 0 mm 1 mps 763 mmHg 47%
    17:00 +19°C° 0 mm 1 mps 763 mmHg 51%
    18:00 +18°C° 0 mm 1 mps 763 mmHg 56%
    19:00 +16°C° 0 mm 1 mps 763 mmHg 58%
    20:00 +16°C° 0 mm 1 mps 763 mmHg 60%
    21:00 +15°C° 0 mm 1 mps 763 mmHg 63%
    22:00 +15°C° 0 mm 1 mps 763 mmHg 66%
    23:00 +14°C° 0 mm 1 mps 763 mmHg 68%

    27 October, Sunday

    Time Temperature Precipitation Wind Pressure Humidity
    00:00 +14°C° 0 mm 1 mps 763 mmHg 71%
    01:00 +13°C° 0 mm 1 mps 763 mmHg 73%
    02:00 +13°C° 0 mm 1 mps 763 mmHg 75%
    03:00 +12°C° 0 mm 0 mps 763 mmHg 76%
    04:00 +12°C° 0 mm 1 mps 763 mmHg 77%
    05:00 +12°C° 0 mm 1 mps 763 mmHg 78%
    06:00 +12°C° 0 mm 1 mps 763 mmHg 79%
    07:00 +13°C° 0 mm 1 mps 763 mmHg 74%
    08:00 +14°C° 0 mm 1 mps 763 mmHg 69%
    09:00 +15°C° 0 mm 1 mps 763 mmHg 64%
    10:00 +16°C° 0 mm 2 mps 763 mmHg 57%
    11:00 +18°C° 0 mm 2 mps 763 mmHg 50%
    12:00 +19°C° 0 mm 3 mps 763 mmHg 44%
    13:00 +20°C° 0 mm 3 mps 763 mmHg 42%
    14:00 +20°C° 0 mm 3 mps 762 mmHg 40%
    15:00 +21°C° 0 mm 3 mps 762 mmHg 38%
    16:00 +19°C° 0 mm 3 mps 762 mmHg 43%
    17:00 +18°C° 0 mm 3 mps 762 mmHg 48%
    18:00 +17°C° 0 mm 3 mps 762 mmHg 54%
    19:00 +16°C° 0 mm 3 mps 762 mmHg 57%
    20:00 +16°C° 0 mm 3 mps 762 mmHg 60%
    21:00 +14°C° 0 mm 3 mps 762 mmHg 63%
    22:00 +14°C° 0 mm 3 mps 762 mmHg 65%
    23:00 +15°C° 0 mm 2 mps 762 mmHg 67%

    28 October, Monday

    Time Temperature Precipitation Wind Pressure Humidity
    00:00 +14°C° 0 mm 2 mps 762 mmHg 69%
    01:00 +14°C° 0 mm 2 mps 761 mmHg 69%
    02:00 +14°C° 0 mm 2 mps 761 mmHg 70%
    03:00 +13°C° 0 mm 2 mps 761 mmHg 71%
    04:00 +13°C° 0 mm 2 mps 761 mmHg 72%
    05:00 +13°C° 0 mm 2 mps 761 mmHg 72%
    06:00 +13°C° 0 mm 2 mps 760 mmHg 73%
    07:00 +12°C° 0 mm 3 mps 760 mmHg 69%
    08:00 +13°C° 0 mm 3 mps 760 mmHg 65%
    09:00 +14°C° 0 mm 4 mps 760 mmHg 61%
    10:00 +17°C° 0 mm 4 mps 760 mmHg 56%
    11:00 +19°C° 0 mm 5 mps 760 mmHg 51%
    12:00 +21°C° 0 mm 5 mps 760 mmHg 45%
    13:00 +21°C° 0 mm 5 mps 759 mmHg 44%
    14:00 +21°C° 0 mm 5 mps 759 mmHg 43%
    15:00 +22°C° 0 mm 5 mps 759 mmHg 41%
    16:00 +20°C° 0 mm 5 mps 758 mmHg 46%
    17:00 +19°C° 0 mm 5 mps 758 mmHg 52%
    18:00 +17°C° 0 mm 4 mps 758 mmHg 57%
    19:00 +15°C° 0 mm 4 mps 758 mmHg 60%
    20:00 +15°C° 0 mm 4 mps 758 mmHg 63%
    21:00 +14°C° 0 mm 3 mps 758 mmHg 66%
    22:00 +14°C° 0 mm 3 mps 759 mmHg 68%
    23:00 +13°C° 0 mm 3 mps 759 mmHg 70%

    29 October, Tuesday

    Time Temperature Precipitation Wind Pressure Humidity
    00:00 +14°C° 0 mm 2 mps 759 mmHg 71%
    01:00 +14°C° 0 mm 2 mps 759 mmHg 72%
    02:00 +14°C° 0 mm 2 mps 759 mmHg 72%
    03:00 +13°C° 0 mm 1 mps 759 mmHg 73%
    04:00 +13°C° 0 mm 1 mps 759 mmHg 73%
    05:00 +13°C° 0 mm 1 mps 759 mmHg 74%
    06:00 +12°C° 0 mm 0 mps 759 mmHg 75%
    07:00 +12°C° 0 mm 0 mps 759 mmHg 72%
    08:00 +14°C° 0 mm 1 mps 759 mmHg 69%
    09:00 +15°C° 0 mm 1 mps 759 mmHg 66%
    10:00 +16°C° 0 mm 1 mps 759 mmHg 60%
    11:00 +19°C° 0 mm 1 mps 759 mmHg 55%
    12:00 +20°C° 0 mm 1 mps 760 mmHg 50%
    13:00 +21°C° 0 mm 1 mps 759 mmHg 48%
    14:00 +21°C° 0 mm 1 mps 759 mmHg 46%
    15:00 +22°C° 0 mm 1 mps 759 mmHg 44%
    16:00 +19°C° 0 mm 2 mps 759 mmHg 48%
    17:00 +18°C° 0 mm 2 mps 759 mmHg 53%
    18:00 +17°C° 0 mm 2 mps 759 mmHg 57%
    19:00 +16°C° 0 mm 2 mps 759 mmHg 61%
    20:00 +14°C° 0 mm 3 mps 759 mmHg 65%
    21:00 +14°C° 0 mm 3 mps 759 mmHg 69%
    22:00 +13°C° 0 mm 3 mps 759 mmHg 72%
    23:00 +13°C° 0 mm 3 mps 759 mmHg 74%
    Show more